Weather History for Carlsbad, NM

Change the Weather History Date:

Wednesday, April 9, 2014

  Actual Average Record
Temperature  
Mean Temperature 66 °F -  
Max Temperature 91 °F 75 °F 93 °F (2011)
Min Temperature 41 °F 44 °F 22 °F (1973)
Growing Degree Days 16 (Base 50)    
Moisture  
Dew Point 10 °F    
Average Humidity 16    
Maximum Humidity 37    
Minimum Humidity 4    
Precipitation  
Precipitation 0.00 in - - ()
Sea Level Pressure  
Sea Level Pressure 29.96 in    
Wind  
Wind Speed 7 mph (SW)    
Max Wind Speed 17 mph    
Max Gust Speed 25 mph    
Visibility 10 miles    
Events      
Averages and records for this station are not official NWS values.
T = Trace of Precipitation, MM = Missing Value Source: NWS Daily Summary

Daily Weather History Graph

Daily Weather History Graph

Search for Another Location

Airport:

Trip Planner

Search our weather history database for the weather conditions in past years. The results will help you decide how hot, cold, wet, or windy it might be!

Date:

Astronomy

Apr. 09, 2014 Rise Set
Actual Time 6:35 AM MDT 7:22 PM MDT
Civil Twilight 6:10 AM MDT 7:47 PM MDT
Nautical Twilight 5:40 AM MDT 8:16 PM MDT
Astronomical Twilight 5:10 AM MDT 8:47 PM MDT
Moon 2:29 PM MDT (4/9) 3:08 AM MDT (4/9)
Length of Visible Light 13h 37m
Length of Day
12h 47m
Waxing Gibbous, 72% of the Moon is Illuminated
Apr 9
Waxing Gibbous
Apr 15
Full
Apr 22
Last Quarter
Apr 29
New
May 6
First Quarter

Hourly Weather History & Observations

Time (MDT) Temp. Windchill Dew Point Humidity Pressure Visibility Wind Dir Wind Speed Gust Speed Precip Events Conditions
12:53 AM 57.0 °F - 16.0 °F 20% 30.08 in 10.0 mi South 4.6 mph - N/A   Clear
1:53 AM 50.0 °F - 16.0 °F 26% 30.08 in 10.0 mi South 8.1 mph - N/A   Clear
2:53 AM 48.0 °F - 16.0 °F 28% 30.06 in 10.0 mi ESE 3.5 mph - N/A   Clear
3:53 AM 46.9 °F - 17.1 °F 30% 30.04 in 10.0 mi Calm Calm - N/A   Clear
4:53 AM 42.1 °F 40.2 °F 16.0 °F 35% 30.04 in 10.0 mi WSW 3.5 mph - N/A   Clear
5:53 AM 41.0 °F 37.1 °F 16.0 °F 36% 30.06 in 10.0 mi NW 5.8 mph - N/A   Clear
6:53 AM 42.1 °F 39.2 °F 17.1 °F 37% 30.07 in 10.0 mi NW 4.6 mph - N/A   Clear
7:53 AM 51.1 °F - 18.0 °F 27% 30.07 in 10.0 mi Calm Calm - N/A   Clear
8:53 AM 57.9 °F - 19.0 °F 22% 30.08 in 10.0 mi South 3.5 mph - N/A   Clear
9:53 AM 64.0 °F - 18.0 °F 17% 30.06 in 10.0 mi SE 6.9 mph - N/A   Clear
10:53 AM 72.0 °F - 18.0 °F 13% 30.04 in 10.0 mi ESE 6.9 mph - N/A   Clear
11:53 AM 80.1 °F - 14.0 °F 8% 29.98 in 10.0 mi SE 6.9 mph - N/A   Clear
12:53 PM 87.1 °F - 10.9 °F 6% 29.95 in 10.0 mi SSE 9.2 mph - N/A   Clear
1:53 PM 88.0 °F - 8.1 °F 5% 29.91 in 10.0 mi Variable 6.9 mph - N/A   Clear
2:53 PM 90.0 °F - 1.9 °F 4% 29.88 in 10.0 mi West 15.0 mph 25.3 mph N/A   Clear
3:53 PM 89.1 °F - -0.0 °F 4% 29.85 in 10.0 mi WSW 15.0 mph 24.2 mph N/A   Clear
4:53 PM 90.0 °F - 1.9 °F 4% 29.84 in 10.0 mi WSW 13.8 mph 20.7 mph N/A   Clear
5:53 PM 88.0 °F - 3.0 °F 4% 29.83 in 10.0 mi WSW 17.3 mph - N/A   Clear
6:53 PM 84.0 °F - 3.9 °F 5% 29.84 in 10.0 mi SW 10.4 mph - N/A   Clear
7:53 PM 73.0 °F - 3.0 °F 6% 29.86 in 10.0 mi SW 11.5 mph - N/A   Clear
8:53 PM 71.1 °F - 3.0 °F 7% 29.86 in 10.0 mi WSW 13.8 mph - N/A   Clear
9:53 PM 66.9 °F - 3.0 °F 8% 29.86 in 10.0 mi WSW 13.8 mph - N/A   Clear
10:53 PM 66.9 °F - 3.0 °F 8% 29.84 in 10.0 mi West 13.8 mph - N/A   Clear
11:53 PM 59.0 °F - 5.0 °F 12% 29.84 in 10.0 mi West 10.4 mph - N/A   Clear